Location: Altleiningen
(49.5078°N, 8.0741°E)
Time: 21:29:27
(UTC+00:00)

USA 307 - Pass Details

Date: 14 June 2025
Orbit: 495 x 502 km, 54.0° (Epoch: 10 March)

Event Time Altitude Azimuth Distance (km) Brightness Sun altitude
Exits shadow 22:54:11 33° 132° (SE) 824 3.3 -16.8°
Drops below altitude 10° 22:57:33 10° 75° (ENE) 1,703 5.4 -16.9°
Sets 22:59:57 0° 66° (ENE) 2,596 6.5 -16.9°
